Weather in Yukki

Russia / Saint-Petersburg and Leningrad Oblast     60°06′55″N   30°16′38″E
В апреле 2022 года жителям России запретили посещать сайт meteo.paraplan.net по решению Генеральной прокуратуры. Аудитория сайта уменьшилась в 10 раз. Владельцы сайта не видят смысла в поддержке погодного сервера в таких условиях. Сайт будет закрыт в октябре.
temp.,
°C
wind,
m/s
gust,
m/s
humid.,
%
clouds,
%
prec.,
mm/h
press.,
hPa
HPBL,
m
3 october, mon
mon300:00+6ne399491 0.0 1010236
03:00+5ne31090100 0.0 1010343
06:00+6ne51378100 0.0 1009811
09:00+7ne61374100 0.0 10081017
12:00+8ne71373100 0.0 1006949
15:00+7nne81579100 0.4 10041028
18:00+7nne91790100 3.7 10021018
21:00+7ne81691100 9.5 10001010
4 october, tue
tue400:00+8ne61394100 5.6 999789
03:00+8ene3797100 8.1 998444
06:00+8ese498873 2.0 1000573
09:00+7ene4890100 2.1 1001506
12:00+9e3784100 0.1 1002625
15:00+8se479284 0.8 1003605
18:00+7se239099 0.1 1005174
21:00+6e1291100 0.1 100764
5 october, wed
wed500:00+6ene119196 0.0 100822
03:00+6e119396 0.0 100820
06:00+5wnw119496 0.0 100919
09:00+6wsw119048 0.0 100978
12:00+7ssw2489100 0.1 1010290
15:00+7s2592100 0.6 1010244
18:00+8ssw2491100 0.2 1010128
21:00+7s3795100 0.5 1010251
6 october, thu
thu600:00+8sse31094100 0.9 1010409
03:00+8sse3896100 1.0 1009336
06:00+9sse3799100 0.1 1007225
09:00+10s41098100 0.1 1005404
12:00+12sw51188100 0.1 1004914
15:00+12wsw61491100 1.9 10031082
18:00+11w816797 0.2 10051259
21:00+11wsw7167725 0.3 10051350
7 october, fri
fri700:00+11wsw8157825 0.3 10061276
03:00+11wsw81778100 0.7 10061669
06:00+10wsw9178148 1.8 10061304
09:00+10w9177911 2.9 10071581
12:00+12w815741 0.1 10101393
15:00+12w815754 0.1 10111253
18:00+11w6147999 0.0 10121080
21:00+11sw51379100 0.0 1011700